sat.trackr.live / text

‹ back to catalog

LEMUR-1

NORAD 40044 · 2014-033AL

PAYLOAD ACTIVE UNKNOWN

§ Identity

Operator
Country
US
Launch date
2014-06-19
Launch site
DLS
Launch vehicle
Mass (kg)
RCS (m²)
0.06

Purposes: earth_obs

External: N2YO · Heavens-Above · Gunter

§ Orbital elements

Epoch: 2026-09-10T04:09:01.052640Z

Period
96.94 min
Inclination
97.7996°
Eccentricity
0.0048568
Mean motion
14.85506880 rev/d
Perigee alt
578.0 km
Apogee alt
645.9 km
Semi-major
6,990.1 km
B*
1.8974e-4
RAAN
41.1649°
Arg perigee
157.7624°
Mean anomaly
202.5712°
Rev number
65,808

§ Raw data

LEMUR-11 40044U 14033AL  26253.17292885  .00001617  00000+0  18974-3 0  99992 40044  97.7996  41.1649 0048568 157.7624 202.5712 14.85506880658080

JSON: /api/v1/satellites/40044 · /tle

For live sub-satellite position, see the globe view (requires WebGL).

§ Visibility from observer

Set your observer location to see the next 7 days of passes ≥ 10°. The values pass through the URL so the page stays shareable.

No JS? Fill the form by hand. The geolocation button needs JavaScript.